timestamp,wind_dir_avg,wind_spd_max_dir,wind_spd_avg,wind_spd_gust,battery_voltage,lat,long
2017-10-01 00:00:00+00:00,256.0,262.0,4.98,5.72,12.7,47.59359,-54.27349
2017-10-01 00:10:00+00:00,253.0,250.0,5.85,6.98,12.6,47.59359,-54.27349
2017-10-01 00:20:00+00:00,247.0,248.0,5.59,6.61,12.7,47.59359,-54.27349
2017-10-01 00:30:00+00:00,246.0,248.0,5.87,7.26,12.7,47.59359,-54.27349
2017-10-01 00:40:00+00:00,251.0,242.0,5.85,6.53,12.7,47.59359,-54.27349
2017-10-01 00:50:00+00:00,256.0,260.0,6.35,6.98,12.7,47.59359,-54.27349
2017-10-01 01:00:00+00:00,250.0,250.0,6.18,6.88,12.6,47.59359,-54.27349
2017-10-01 01:10:00+00:00,243.0,239.0,5.49,6.62,12.6,47.59359,-54.27349
2017-10-01 01:20:00+00:00,258.0,256.0,6.17,6.72,12.7,47.59359,-54.27349
2017-10-01 01:30:00+00:00,261.0,253.0,5.19,6.12,12.7,47.59359,-54.27349
2017-10-01 01:40:00+00:00,263.0,263.0,5.24,5.84,12.7,47.59359,-54.27349
2017-10-01 01:50:00+00:00,267.0,260.0,4.9,5.6,12.7,47.59359,-54.27349
2017-10-01 02:00:00+00:00,267.0,271.0,4.29,4.82,12.6,47.59359,-54.27349
2017-10-01 02:10:00+00:00,267.0,270.0,4.19,4.79,12.6,47.59359,-54.27349
2017-10-01 02:20:00+00:00,274.0,272.0,4.48,5.33,12.6,47.59359,-54.27349
2017-10-01 02:30:00+00:00,283.0,280.0,4.92,5.62,12.6,47.59359,-54.27349
2017-10-01 02:40:00+00:00,265.0,264.0,4.61,5.33,12.7,47.59359,-54.27349
2017-10-01 02:50:00+00:00,263.0,264.0,5.4,6.02,12.7,47.59359,-54.27349
2017-10-01 03:00:00+00:00,269.0,270.0,5.75,6.7,12.6,47.59359,-54.27349
2017-10-01 03:10:00+00:00,271.0,270.0,6.01,6.64,12.6,47.59359,-54.27349
2017-10-01 03:20:00+00:00,272.0,273.0,6.21,6.68,12.6,47.59359,-54.27349
2017-10-01 03:30:00+00:00,277.0,275.0,5.3,6.02,12.6,47.59359,-54.27349
2017-10-01 03:40:00+00:00,254.0,255.0,5.38,6.45,12.6,47.59359,-54.27349
2017-10-01 03:50:00+00:00,272.0,279.0,5.93,6.57,12.6,47.59359,-54.27349
2017-10-01 04:00:00+00:00,254.0,252.0,5.03,5.54,12.6,47.59359,-54.27349
2017-10-01 04:10:00+00:00,260.0,256.0,5.92,6.25,12.6,47.59359,-54.27349
2017-10-01 04:20:00+00:00,258.0,257.0,6.27,6.9,12.6,47.59359,-54.27349
2017-10-01 04:30:00+00:00,257.0,255.0,6.12,7.85,12.6,47.59359,-54.27349
2017-10-01 04:40:00+00:00,255.0,256.0,7.1,7.89,12.6,47.59359,-54.27349
2017-10-01 04:50:00+00:00,257.0,260.0,6.37,7.03,12.6,47.59359,-54.27349
2017-10-01 05:00:00+00:00,254.0,251.0,6.38,7.17,12.6,47.59359,-54.27349
2017-10-01 05:10:00+00:00,247.0,255.0,6.47,7.37,12.6,47.59359,-54.27349
2017-10-01 05:20:00+00:00,248.0,251.0,7.13,7.93,12.6,47.59359,-54.27349
2017-10-01 05:30:00+00:00,249.0,253.0,5.47,6.9,12.6,47.59359,-54.27349
2017-10-01 05:40:00+00:00,256.0,253.0,6.38,7.1,12.6,47.59359,-54.27349
2017-10-01 05:50:00+00:00,254.0,256.0,6.46,6.8,12.6,47.59359,-54.27349
2017-10-01 06:00:00+00:00,267.0,268.0,6.57,7.73,12.6,47.59359,-54.27349
2017-10-01 06:10:00+00:00,267.0,274.0,5.29,5.95,12.6,47.59359,-54.27349
2017-10-01 06:20:00+00:00,266.0,269.0,5.89,6.56,12.6,47.59359,-54.27349
2017-10-01 06:30:00+00:00,254.0,253.0,6.7,7.34,12.6,47.59359,-54.27349
2017-10-01 06:40:00+00:00,258.0,267.0,6.0,8.18,12.6,47.59359,-54.27349
2017-10-01 06:50:00+00:00,255.0,250.0,5.86,6.53,12.6,47.59359,-54.27349
2017-10-01 07:00:00+00:00,260.0,265.0,5.8,6.59,12.6,47.59359,-54.27349
2017-10-01 07:10:00+00:00,273.0,274.0,6.09,6.82,12.6,47.59359,-54.27349
2017-10-01 07:20:00+00:00,270.0,275.0,5.29,6.07,12.6,47.59359,-54.27349
2017-10-01 07:30:00+00:00,275.0,276.0,5.09,6.25,12.6,47.59359,-54.27349
2017-10-01 07:40:00+00:00,265.0,265.0,4.1,5.12,12.6,47.59359,-54.27349
2017-10-01 07:50:00+00:00,250.0,252.0,4.9,5.9,12.6,47.59359,-54.27349
2017-10-01 08:00:00+00:00,263.0,268.0,5.47,6.62,12.6,47.59359,-54.27349
2017-10-01 08:10:00+00:00,247.0,251.0,7.06,7.77,12.5,47.59359,-54.27349
2017-10-01 08:20:00+00:00,258.0,259.0,6.94,8.46,12.6,47.59359,-54.27349
2017-10-01 08:30:00+00:00,255.0,248.0,6.5,7.93,12.6,47.59359,-54.27349
2017-10-01 08:40:00+00:00,251.0,246.0,6.29,7.55,12.6,47.59359,-54.27349
2017-10-01 08:50:00+00:00,245.0,244.0,6.43,7.48,12.6,47.59359,-54.27349
2017-10-01 09:00:00+00:00,242.0,239.0,5.38,6.93,12.6,47.59359,-54.27349
2017-10-01 09:10:00+00:00,245.0,251.0,6.52,7.52,12.5,47.59359,-54.27349
2017-10-01 09:20:00+00:00,249.0,253.0,6.82,8.16,12.6,47.59359,-54.27349
2017-10-01 09:30:00+00:00,251.0,251.0,7.77,9.58,12.6,47.59359,-54.27349
2017-10-01 09:40:00+00:00,258.0,259.0,6.67,7.89,12.6,47.59359,-54.27349
2017-10-01 09:50:00+00:00,260.0,270.0,5.91,7.19,12.6,47.59359,-54.27349
2017-10-01 10:00:00+00:00,256.0,253.0,7.33,8.05,12.6,47.59359,-54.27349
2017-10-01 10:10:00+00:00,273.0,288.0,7.36,7.9,12.6,47.59359,-54.27349
2017-10-01 10:20:00+00:00,277.0,279.0,8.47,9.33,12.6,47.59359,-54.27349
2017-10-01 10:30:00+00:00,269.0,269.0,7.41,8.64,12.6,47.59359,-54.27349
2017-10-01 10:40:00+00:00,274.0,274.0,7.45,8.02,12.8,47.59359,-54.27349
2017-10-01 10:50:00+00:00,266.0,274.0,7.06,7.78,14.3,47.59359,-54.27349
2017-10-01 11:00:00+00:00,260.0,261.0,7.28,8.18,13.5,47.59359,-54.27349
2017-10-01 11:10:00+00:00,250.0,250.0,8.4,9.19,13.7,47.59359,-54.27349
2017-10-01 11:20:00+00:00,257.0,260.0,7.92,8.94,13.8,47.59359,-54.27349
2017-10-01 11:30:00+00:00,270.0,270.0,7.48,8.04,13.8,47.59359,-54.27349
2017-10-01 11:40:00+00:00,286.0,282.0,8.56,11.45,13.8,47.59359,-54.27349
2017-10-01 11:50:00+00:00,294.0,296.0,7.71,8.4,13.8,47.59359,-54.27349
2017-10-01 12:00:00+00:00,284.0,294.0,7.73,9.14,13.8,47.59359,-54.27349
2017-10-01 12:10:00+00:00,304.0,306.0,9.15,10.34,13.8,47.59359,-54.27349
2017-10-01 12:20:00+00:00,295.0,299.0,7.72,9.04,14.0,47.59359,-54.27349
2017-10-01 12:30:00+00:00,294.0,286.0,9.12,10.66,13.8,47.59359,-54.27349
2017-10-01 12:40:00+00:00,279.0,281.0,7.84,9.89,14.1,47.59359,-54.27349
2017-10-01 12:50:00+00:00,283.0,288.0,8.33,10.89,13.8,47.59359,-54.27349
2017-10-01 13:00:00+00:00,271.0,269.0,8.13,8.64,13.8,47.59359,-54.27349
2017-10-01 13:10:00+00:00,274.0,276.0,7.88,9.31,13.8,47.59359,-54.27349
2017-10-01 13:20:00+00:00,278.0,275.0,7.37,9.03,13.8,47.59359,-54.27349
2017-10-01 13:30:00+00:00,268.0,263.0,7.61,9.25,14.1,47.59359,-54.27349
2017-10-01 13:40:00+00:00,269.0,271.0,9.55,11.11,13.7,47.59359,-54.27349
2017-10-01 13:50:00+00:00,267.0,270.0,8.32,10.62,13.7,47.59359,-54.27349
2017-10-01 14:00:00+00:00,267.0,268.0,8.74,10.35,13.7,47.59359,-54.27349
2017-10-01 14:10:00+00:00,236.0,237.0,7.82,8.86,13.7,47.59359,-54.27349
2017-10-01 14:20:00+00:00,250.0,251.0,8.28,9.63,13.7,47.59359,-54.27349
2017-10-01 14:30:00+00:00,250.0,247.0,9.01,11.24,14.0,47.59359,-54.27349
2017-10-01 14:40:00+00:00,258.0,263.0,10.26,11.14,14.1,47.59359,-54.27349
2017-10-01 14:50:00+00:00,251.0,246.0,11.46,13.34,14.2,47.59359,-54.27349
2017-10-01 15:00:00+00:00,253.0,254.0,10.85,12.42,13.7,47.59359,-54.27349
2017-10-01 15:10:00+00:00,254.0,254.0,10.68,12.41,13.7,47.59359,-54.27349
2017-10-01 15:20:00+00:00,243.0,248.0,11.33,14.01,14.1,47.59359,-54.27349
2017-10-01 15:30:00+00:00,251.0,251.0,12.58,14.22,13.7,47.59359,-54.27349
2017-10-01 15:40:00+00:00,242.0,246.0,12.03,13.98,13.8,47.59359,-54.27349
2017-10-01 15:50:00+00:00,241.0,240.0,10.6,12.46,13.7,47.59359,-54.27349
2017-10-01 16:00:00+00:00,241.0,242.0,10.51,12.63,14.0,47.59359,-54.27349
2017-10-01 16:10:00+00:00,247.0,237.0,9.73,13.14,14.1,47.59359,-54.27349
2017-10-01 16:20:00+00:00,256.0,257.0,11.79,13.74,13.7,47.59359,-54.27349
2017-10-01 16:30:00+00:00,256.0,256.0,10.46,12.21,14.0,47.59359,-54.27349
2017-10-01 16:40:00+00:00,254.0,261.0,9.94,13.94,14.0,47.59359,-54.27349
2017-10-01 16:50:00+00:00,248.0,240.0,10.39,11.98,13.7,47.59359,-54.27349
2017-10-01 17:00:00+00:00,243.0,247.0,11.02,13.72,13.8,47.59359,-54.27349
2017-10-01 17:10:00+00:00,249.0,258.0,11.41,16.4,13.8,47.59359,-54.27349
2017-10-01 17:20:00+00:00,250.0,249.0,11.69,13.74,13.7,47.59359,-54.27349
2017-10-01 17:30:00+00:00,262.0,263.0,12.17,16.05,13.8,47.59359,-54.27349
2017-10-01 17:40:00+00:00,253.0,252.0,15.0,16.56,13.9,47.59359,-54.27349
2017-10-01 17:50:00+00:00,251.0,250.0,14.72,16.36,13.9,47.59359,-54.27349
2017-10-01 18:00:00+00:00,250.0,253.0,13.91,15.68,13.7,47.59359,-54.27349
2017-10-01 18:10:00+00:00,250.0,255.0,13.73,17.14,13.7,47.59359,-54.27349
2017-10-01 18:20:00+00:00,251.0,257.0,12.33,14.67,13.8,47.59359,-54.27349
2017-10-01 18:30:00+00:00,247.0,243.0,13.51,16.09,13.8,47.59359,-54.27349
2017-10-01 18:40:00+00:00,255.0,250.0,13.66,15.58,13.7,47.59359,-54.27349
2017-10-01 18:50:00+00:00,251.0,248.0,14.26,17.82,13.8,47.59359,-54.27349
2017-10-01 19:00:00+00:00,245.0,246.0,14.11,16.3,13.6,47.59359,-54.27349
2017-10-01 19:10:00+00:00,252.0,255.0,15.2,18.9,13.6,47.59359,-54.27349
2017-10-01 19:20:00+00:00,254.0,256.0,14.68,18.24,13.9,47.59359,-54.27349
2017-10-01 19:30:00+00:00,250.0,248.0,14.97,17.75,13.9,47.59359,-54.27349
2017-10-01 19:40:00+00:00,265.0,271.0,12.91,15.77,13.9,47.59359,-54.27349
2017-10-01 19:50:00+00:00,273.0,274.0,12.87,14.48,13.7,47.59359,-54.27349
2017-10-01 20:00:00+00:00,265.0,265.0,12.81,14.85,14.0,47.59359,-54.27349
2017-10-01 20:10:00+00:00,270.0,265.0,12.11,14.13,13.9,47.59359,-54.27349
2017-10-01 20:20:00+00:00,271.0,269.0,13.16,14.42,13.9,47.59359,-54.27349
2017-10-01 20:30:00+00:00,272.0,270.0,12.03,14.22,13.8,47.59359,-54.27349
2017-10-01 20:40:00+00:00,260.0,259.0,13.17,15.11,13.7,47.59359,-54.27349
2017-10-01 20:50:00+00:00,264.0,267.0,14.77,16.4,13.6,47.59359,-54.27349
2017-10-01 21:00:00+00:00,261.0,261.0,13.05,14.08,13.4,47.59359,-54.27349
2017-10-01 21:10:00+00:00,254.0,259.0,13.41,15.96,13.3,47.59359,-54.27349
2017-10-01 21:20:00+00:00,254.0,253.0,13.55,15.51,13.2,47.59359,-54.27349
2017-10-01 21:30:00+00:00,251.0,253.0,12.25,14.79,13.2,47.59359,-54.27349
2017-10-01 21:40:00+00:00,257.0,258.0,13.98,17.76,13.1,47.59359,-54.27349
2017-10-01 21:50:00+00:00,250.0,254.0,13.71,17.71,13.0,47.59359,-54.27349
2017-10-01 22:00:00+00:00,255.0,257.0,11.43,13.37,13.0,47.59359,-54.27349
2017-10-01 22:10:00+00:00,248.0,253.0,10.57,12.36,12.8,47.59359,-54.27349
2017-10-01 22:20:00+00:00,248.0,245.0,11.76,13.51,12.8,47.59359,-54.27349
2017-10-01 22:30:00+00:00,246.0,249.0,11.77,14.11,12.8,47.59359,-54.27349
2017-10-01 22:40:00+00:00,251.0,251.0,13.37,14.71,12.8,47.59359,-54.27349
2017-10-01 22:50:00+00:00,252.0,253.0,12.97,14.14,12.8,47.59359,-54.27349
2017-10-01 23:00:00+00:00,245.0,242.0,11.55,13.2,12.7,47.59359,-54.27349
2017-10-01 23:10:00+00:00,248.0,250.0,10.6,11.93,12.6,47.59359,-54.27349
2017-10-01 23:20:00+00:00,246.0,251.0,10.14,12.04,12.7,47.59359,-54.27349
2017-10-01 23:30:00+00:00,256.0,257.0,11.12,12.33,12.7,47.59359,-54.27349
2017-10-01 23:40:00+00:00,254.0,249.0,11.23,13.65,12.7,47.59359,-54.27349
2017-10-01 23:50:00+00:00,254.0,258.0,11.14,12.91,12.8,47.59359,-54.27349
